カタログに戻る

FREGAT DEB

運用中SSO
NORAD 40078·DEBRIS·🇷🇺 Russia

打ち上げ Jul 8, 2014 から Baikonur Cosmodrome

Loading…

次のパス (今後24時間)

TLE

最新Source: Space-Track

元期: Sep 14, 2026, 08:16 UTC

1 40078U 14037K   26257.34457051  .00000214  00000-0  53756-4 0  9992
2 40078  98.0792 232.3656 0130831 148.9241 211.9780 14.55729032646099

AllMySatでFREGAT DEBをリアルタイム追跡

Download on the App Store